Flag for Mexico Weather past 2 weeks in Playa del Carmen, Quintana Roo, Mexico

Now
75 °F

Passing clouds.


Feels Like: 75 °F
Forecast: 79 / 87 °F
Wind: No wind

Location: Cozumel Civ / Mil

Current Time: May 6, 2015 at 10:39:55 PM

Latest Report: May 6, 2015 at 9:58 PM


Visibility: 7 mi

Pressure: 29.97 "Hg

Humidity: 89%

Dew point: 72 °F

Location of Playa del CarmenLocation

Historic Weather in Playa del Carmen — Graph

°F

Playa del Carmen temperature yesterday

Maximum temperature yesterday: 84 °F (at 11:46 AM)
Minimum temperature yesterday: 66 °F (at 6:48 AM)
Average temperature yesterday: 75 °F

Past Weeks' High & Low Weather Summary

 TemperatureHumidityPressure
High91 °F (Apr 29, 2:46 PM)100% (Apr 21, 10:42 PM)30.03 "Hg (Apr 21, 10:42 PM)
Low66 °F (May 3, 5:49 AM)58% (May 2, 5:48 PM)29.65 "Hg (Apr 28, 6:48 PM)
Average77 °F85%29.90 "Hg
* Reported Apr 21 7:46 PM — May 6 7:45 PM, Playa del Carmen, Weather by CustomWeather, © 2015

Note: Actual official high and low records may vary slightly from our data, if they occured in-between our weather recording intervals... More about our weather records

Advertising

Playa del Carmen weather history for previous 24 hours

 ConditionsComfort  
Time TempWeatherWind HumidityBarometerVisibility
7:45 PM
Wed, May 6
77 °FScattered clouds.No wind89%29.93 "Hg8 mi
6:52 PM79 °FScattered clouds.13 mph84%29.89 "Hg8 mi
4:43 PM82 °FPartly sunny.12 mph70%29.92 "Hg8 mi
4:06 PM84 °FPartly sunny.17 mph70%29.94 "Hg8 mi
2:53 PM84 °FPartly sunny.12 mph66%29.93 "Hg8 mi
12:47 PM84 °FPartly sunny.13 mph70%29.94 "Hg8 mi
10:48 AM84 °FPartly sunny.15 mph66%29.99 "Hg8 mi
9:46 AM82 °FPartly sunny.13 mph70%30.01 "Hg8 mi
8:45 AM81 °FPartly sunny.13 mph74%29.97 "Hg8 mi
6:47 AM72 °FPassing clouds.No wind100%29.92 "Hg8 mi
5:42 AM72 °FPassing clouds.No wind94%29.93 "Hg7 mi
2:41 AM73 °FClear.No wind94%29.94 "Hg7 mi
1:41 AM73 °FClear.No wind94%29.95 "Hg7 mi
12:44 AM72 °FClear.No wind100%29.95 "Hg7 mi
11:40 PM
Tue, May 5
73 °FClear.No wind94%29.98 "Hg7 mi
10:40 PM73 °FPassing clouds.No wind94%29.98 "Hg7 mi
Weather by CustomWeather, © 2015

See weather overviewHow to use our weather pages